User: anonymous   Login
Location: Madrid
(40.4000°N, 3.6830°W)
Time: 19:24:54
(UTC+02:00)
Language:

ISS - Orbit

View from above orbital plane
View from above orbital plane
View from above satellite
View from above satellite

Ground track
Ground track

The orbit data is extracted from the following two-line orbital elements,

1 25544U 98067A   20274.03554720  .00016717  00000-0  10270-3 0  9053
2 25544  51.6441 189.6667 0001410 119.6878 240.4413 15.48791000  8261
Epoch (UTC): 30 September 2020 00:51:11
Eccentricity: 0.0001410
inclination: 51.6441°
perigee height: 419 km
apogee height: 421 km
right ascension of ascending node: 189.6667°
argument of perigee: 119.6878°
revolutions per day: 15.48791000
mean anomaly at epoch: 240.4413°
orbit number at epoch: 826

The dashed part of the orbit path shows where the satellite is in the earth's shadow,  

DLR